Location: Helensbirgh
(56.0153°N, 4.7348°W)
Time: 05:04:29
(UTC+01:00)

ISS - Visible Passes

Search period start: 24 October 2019 00:00
Search period end: 02 November 2019 23:00
Orbit: 411 x 421 km, 51.6° (Epoch: 24 October)

Date Brightness Start Highest point End Pass type
(mag) Time Alt. Az. Time Alt. Az. Time Alt. Az.
24 Oct -0.4 07:26:19 10° SSE 07:27:01 11° SE 07:27:44 10° SE visible
26 Oct -1.1 07:23:43 10° SSW 07:26:06 18° SSE 07:28:29 10° ESE visible
27 Oct -0.9 05:35:54 10° S 05:37:43 14° SSE 05:39:31 10° ESE visible
28 Oct -1.9 06:22:21 10° SW 06:25:16 27° SSE 06:28:11 10° ESE visible
29 Oct -1.6 05:34:12 10° SSW 05:36:47 22° SSE 05:39:29 10° ESE visible
30 Oct -1.5 04:47:46 17° SSE 04:48:20 17° SSE 04:50:38 10° ESE visible
30 Oct -2.4 06:21:21 10° WSW 06:24:29 35° S 06:27:35 10° ESE visible
31 Oct -0.6 04:01:16 11° ESE 04:01:16 11° ESE 04:01:34 10° ESE visible
31 Oct -2.3 05:34:10 19° SW 05:35:56 31° SSE 05:38:58 10° ESE visible
01 Nov -2.0 04:47:35 26° SSE 04:47:35 26° SSE 04:50:17 10° ESE visible
01 Nov -2.7 06:20:30 10° WSW 06:23:41 39° S 06:26:51 10° ESE visible
02 Nov -0.7 04:00:57 13° ESE 04:00:57 13° ESE 04:01:31 10° ESE visible
02 Nov -2.7 05:33:50 27° SW 05:35:06 38° S 05:38:15 10° ESE visible
